#timestamp,LO_Frequency,Hit,StdDev 
1543179615.1,286047007.5,Y
1543179616.0,286047007.5,P
1543179635.8,286047002.2,N
1543179655.6,286047002.4,N
1543179675.5,286047000.6,N
1543179695.3,286046999.4,N
1543179715.2,286046997.5,N
1543179735.9,286046995.8,N
1543179755.7,286046993.6,N
1543179775.6,286046995.9,N
1543179795.4,286046994.2,N
1543179815.2,286046992.5,N
1543179835.1,286046994.3,N
1543179836.0,286046994.3,N
1543179855.8,286046992.9,N
1543179875.6,286046993.5,N
1543179895.5,286046990.2,N
1543179915.3,286046989.7,N
1543179935.2,286046987.5,N
1543179955.9,286046985.8,N
1543179975.7,286046983.7,Y
1543179995.6,286046989.2,P
1543180015.4,286046987.4,P
1543180035.2,286046988.0,P
1543180055.1,286046988.4,Y
1543180056.0,286046988.4,P
1543180075.8,286046997.7,N
1543180095.7,286046997.0,N
1543180115.5,286047002.4,N
1543180135.3,286047001.1,N
1543180155.2,286046998.7,N
1543180175.0,286046997.1,N
1543180175.9,286046997.1,N
1543180195.8,286046995.0,N
1543180215.6,286046996.0,N
1543180235.4,286046993.9,N
1543180255.3,286046991.1,N
1543180275.1,286046988.9,N
1543180295.8,286046988.6,N
1543180315.7,286046987.5,N
1543180335.5,286046987.9,N
1543180355.4,286046986.8,N
1543180375.2,286046985.9,N
1543180395.0,286046983.8,Y
1543180395.9,286046983.8,P
1543180415.8,286046990.9,N
1543180435.6,286046990.8,N
1543180455.4,286046990.6,N
1543180475.3,286046993.6,N
1543180495.1,286046993.4,N
1543180515.9,286046994.0,N
1543180535.7,286046994.3,N
1543180555.5,286046993.2,N
1543180575.4,286046993.8,N
1543180595.2,286046994.4,N
1543180615.0,286046994.5,N
1543180615.9,286046994.5,N
1543180635.8,286046993.6,N
1543180655.6,286046993.6,N
1543180675.5,286046993.5,N
1543180695.3,286046995.8,N
1543180715.1,286046994.1,N
1543180735.9,286046994.3,N
1543180755.7,286046992.8,N
1543180775.5,286046993.2,N
1543180795.4,286046992.0,Y
1543180815.2,286046998.7,P
1543180835.1,286046998.4,N
1543180836.0,286046998.4,N
1543180855.8,286047007.0,N
1543180875.6,286047013.5,N
1543180895.5,286047010.5,N
1543180915.3,286047007.0,N
1543180935.1,286047004.5,N
1543180955.9,286047005.6,N
1543180975.7,286047004.3,N
1543180995.6,286047000.2,N
1543181015.4,286047000.9,N
1543181035.2,286046998.7,N
1543181055.1,286047000.0,N
1543181056.0,286047000.0,N
1543181075.8,286047000.5,N
1543181095.6,286046996.5,N
1543181115.5,286046997.5,N
1543181135.3,286046993.6,N
1543181155.2,286046996.9,N
1543181175.9,286046999.6,N
1543181195.7,286046997.2,N
1543181215.6,286046996.6,N
1543181235.4,286046998.3,N
1543181255.2,286046998.1,N
1543181275.1,286046996.8,N
1543181276.0,286046996.8,N
1543181295.8,286046997.4,N
1543181315.7,286046993.4,N
1543181335.5,286046993.4,N
1543181355.3,286046994.6,N
1543181375.2,286046993.7,N
1543181395.9,286046995.3,N
1543181415.7,286046993.7,N
1543181435.6,286046996.4,N
1543181455.4,286046994.2,N
1543181475.2,286046992.2,N
1543181495.1,286046992.1,N
1543181496.0,286046992.1,N
1543181515.8,286046993.5,N
1543181535.7,286046993.8,N
1543181555.5,286046995.6,N
1543181575.3,286046999.2,N
1543181595.2,286047000.4,N
1543181615.0,286047001.4,N
1543181615.9,286047001.4,N
1543181635.7,286047000.6,N
1543181655.6,286047000.5,N
1543181675.4,286047000.7,N
1543181695.3,286046999.5,N
1543181715.1,286046994.9,N
1543181716.0,286046994.9,N
1543181735.8,286046995.2,N
1543181755.7,286046993.3,N
1543181775.5,286046997.4,N
1543181795.3,286047004.4,N
1543181815.2,286047000.3,N
1543181835.0,286046998.3,N
1543181835.9,286046998.3,N
1543181855.8,286046997.6,N
1543181875.6,286046997.5,N
1543181895.4,286046996.3,N
1543181915.3,286046991.7,N
1543181935.1,286046994.2,N
1543181955.9,286046990.6,N
1543181975.7,286046993.2,N
1543181995.5,286046993.3,N
1543182015.4,286046996.4,N
1543182035.2,286046994.0,N
1543182055.0,286046992.6,N
1543182056.0,286046992.6,N
1543182075.8,286046992.8,N
1543182095.6,286046993.8,N
1543182115.5,286046991.8,N
1543182135.3,286046992.9,N
1543182155.1,286046991.8,N
1543182175.9,286046995.3,N
1543182195.7,286046996.5,N
1543182215.5,286046997.2,N
1543182235.4,286047000.9,N
1543182255.2,286047001.6,N
1543182275.1,286047001.5,N
1543182276.0,286047001.5,N
1543182295.8,286047001.5,N
1543182315.6,286047002.2,N
1543182335.5,286047002.5,N
1543182355.3,286047006.8,N
1543182375.1,286047007.5,N
1543182395.9,286047004.7,N
1543182415.7,286047003.6,N
1543182435.6,286047001.3,N
1543182455.4,286047003.7,N
1543182475.2,286047004.4,N
1543182495.1,286047001.5,N
1543182496.0,286047001.5,N
1543182515.8,286047003.3,N
1543182535.6,286047003.5,N
1543182555.5,286047003.4,N
1543182575.3,286047005.1,N
1543182595.2,286047005.8,N
1543182615.9,286047003.6,N
1543182635.7,286047004.3,N
1543182655.6,286047002.6,N
1543182675.4,286047003.2,N
1543182695.2,286047000.1,N
1543182715.1,286047000.8,N
1543182716.0,286047000.8,N
1543182735.8,286046999.0,N
1543182755.7,286046998.2,N
1543182775.5,286047000.8,N
1543182795.3,286046998.3,N
1543182815.2,286047001.1,N
1543182835.9,286047001.0,N
1543182855.7,286047001.2,N
1543182875.6,286047002.7,N
1543182895.4,286047005.6,N
1543182915.3,286047005.7,N
1543182935.1,286047005.6,N
1543182936.0,286047005.6,N
1543182955.8,286047005.6,N
1543182975.7,286047006.0,N
1543182995.5,286047004.8,N
1543183015.3,286047007.1,Y
1543183035.2,286047003.6,P
1543183055.0,286047005.6,P
1543183055.9,286047005.6,P
1543183075.8,286047003.8,Y
1543183095.6,286046998.8,P
1543183115.4,286047000.8,N
1543183135.3,286047000.7,N
1543183155.1,286047003.4,N
1543183175.8,286047002.0,N
1543183195.7,286047002.8,N
